Regional Weather Roundup
Issued by NWS

Home | Current Version | Previous Version | Text Only | Print | Product List | Glossary Off
Versions: 1 2 3 4 5 6 7 8 9 10 11 12 13 14 15 16 17 18 19 20 21 22 23 24 25 26 27 28 29 30 31 32 33 34 35 36 37 38 39 40 41 42 43 44 45 46 47 48 49 50

000
ASUS43 KIND 131809
RWRIN

WEATHER ROUNDUP FOR INDIANA
NATIONAL WEATHER SERVICE INDIANAPOLIS IN
100 PM EST WED DEC 13 2017

NOTE: "FAIR" INDICATES FEW OR NO CLOUDS BELOW 12,000 FEET WITH NO
SIGNIFICANT WEATHER AND/OR OBSTRUCTIONS TO VISIBILITY.

* - STATION DOES NOT REPORT WEATHER SUCH AS PRECIPITATION OR FOG.

+ - STATION NOT QUALITY CONTROLLED BY THE NATIONAL WEATHER SERVICE.
    USE DATA WITH CAUTION...ESPECIALLY DEWPOINT AND RELATIVE
    HUMIDITY OBSERVATIONS.

INZ001>003-010>013-019-020-131900-
NORTHWEST INDIANA

CITY           SKY/WX    TMP DP  RH WIND       PRES   REMARKS
GARY /AIRPORT/ CLOUDY    36  16  44 S14G25    29.37F WCI  27
KNOX *+        CLOUDY    32  16  51 S18G25    29.41F WCI  20
LA PORTE +     CLOUDY    30  16  55 S10       29.42R WCI  21
6HR MIN TEMP:  20; 6HR MAX TEMP:  30;

MICHIGAN CITY+ CLOUDY    32  16  51 S12G18    29.40S WCI  23
MONTICELLO +   CLOUDY    36  16  43 SW20G26   29.43F WCI  25
6HR MIN TEMP:  23; 6HR MAX TEMP:  36;

RENSSELAER +   CLOUDY    36  12  38 S21G26    29.41F WCI  24
VALPARAISO     CLOUDY    35  18  49 S16G28    29.39F WCI  25
6HR MIN TEMP:  23; 6HR MAX TEMP:  35;


$$

LMZ046-743>745-131900-
SOUTHERN LAKE MICHIGAN

STATION/POSITION TIME  TEMP    WIND        PRES    WAVE
                       AIR SEA DIR/SP/G            HT
                 (UTC) (F)     (DEG/KT/KT) (MB)    (FT)
BURNS HARBOR     1740   33     190/ 19/ 23  995.6F
MICHIGAN CITY    1740   31     160/ 17/ 19   N/A

$$

INZ004-005-014>016-021>024-131900-
NORTH CENTRAL INDIANA

CITY           SKY/WX    TMP DP  RH WIND       PRES   REMARKS
ELKHART        CLOUDY    27  12  54 S15G28    29.42F WCI  15
GOSHEN         CLOUDY    28  12  51 S22G33    29.41F WCI  14
6HR MIN TEMP:  19; 6HR MAX TEMP:  28;

LOGANSPORT +   MOSUNNY   32  14  47 S21G28    29.43F WCI  20
PERU/GRISSOM   CLOUDY    33  12  42 S21G29    29.41F WCI  21
6HR MIN TEMP:  22; 6HR MAX TEMP:  33;

ROCHESTER +    CLOUDY    32  16  51 S14G20    29.42F WCI  22
SOUTH BEND     CLOUDY    27  15  61 S15G24    29.42F WCI  15
6HR MIN TEMP:  19; 6HR MAX TEMP:  27; 6HR PCP: TRACE;

WARSAW +       CLOUDY    28  12  50 S9G21     29.42F WCI  20

$$

INZ006>009-017-018-025>027-131900-
NORTHEAST INDIANA

CITY           SKY/WX    TMP DP  RH WIND       PRES   REMARKS
AUBURN +       CLOUDY    28  12  50 S5        29.52F WCI  23
FORT WAYNE     CLOUDY    28  16  60 S14       29.52F WCI  17
6HR MIN TEMP:  19; 6HR MAX TEMP:  28; 6HR PCP: TRACE;

HUNTINGTON +   CLOUDY    30   9  41 S12G22    29.49F WCI  20
6HR MIN TEMP:  19; 6HR MAX TEMP:  30;

KENDALLVILLE + CLOUDY    26  14  60 S16G24    29.46F WCI  13

$$

INZ028-029-035-036-043>045-051>053-131900-
WEST CENTRAL INDIANA

CITY           SKY/WX    TMP DP  RH WIND       PRES   REMARKS
CRAWFORDSVL +  CLOUDY    35  18  49 S23G30    29.46  WCI  23
6HR MIN TEMP:  21; 6HR MAX TEMP:  35;

GREENCASTLE +  MOSUNNY   36  16  44 S10G21    29.49F WCI  28
LAFAYETTE      MOSUNNY   37  19  48 SW20G33   29.43F WCI  27
6HR MIN TEMP:  23; 6HR MAX TEMP:  37;

TERRE HAUTE    CLOUDY    41  17  38 S21G35    29.51F
6HR MIN TEMP:  23; 6HR MAX TEMP:  41; 6HR PCP: TRACE;


$$

INZ030>032-037>040-046>048-054>057-064-065-131900-
CENTRAL INDIANA

CITY           SKY/WX    TMP DP  RH WIND       PRES   REMARKS
COLUMBUS       CLOUDY    36   3  25 S21G30    29.57F WCI  24
FRANKFORT +    CLOUDY    38  18  42 S21       29.44F WCI  28
6HR MIN TEMP:  26; 6HR MAX TEMP:  38;

GREENWOOD *+   CLOUDY    38  13  36 S22G28    29.54F WCI  27
INDIANAPOLIS   CLOUDY    36  13  38 S20G29    29.49F WCI  25
6HR MIN TEMP:  22; 6HR MAX TEMP:  36;

-EAGLE CREEK   CLOUDY    35  12  38 S15G24    29.47F WCI  25
6HR MIN TEMP:  22; 6HR MAX TEMP:  35;

KOKOMO +       CLOUDY    32  13  45 S23G37    29.44F WCI  19
6HR MIN TEMP:  21; 6HR MAX TEMP:  32;

MARION +       CLOUDY    30  11  44 S23G29    29.48F WCI  17
MT COMFORT *+  CLOUDY    32  16  51 S20G28    29.51F WCI  20
SHELBYVILLE    CLOUDY    34  10  37 S23       29.54F WCI  22
6HR MIN TEMP:  22; 6HR MAX TEMP:  34;

ZIONSVILLE +   CLOUDY    32  12  42 S21G30    29.45F WCI  20
6HR MIN TEMP:  21; 6HR MAX TEMP:  32;


$$

INZ033-034-041-042-049-050-058-059-131900-
EAST CENTRAL INDIANA

CITY           SKY/WX    TMP DP  RH WIND       PRES   REMARKS
MUNCIE         CLOUDY    33   9  36 S20G31    29.51F WCI  21
6HR MIN TEMP:  21; 6HR MAX TEMP:  33;

RICHMOND +     CLOUDY    28  14  54 S23       29.57F WCI  14

$$

INZ060-061-067>069-081>083-085>088-131900-
SOUTHWEST INDIANA

CITY           SKY/WX    TMP DP  RH WIND       PRES   REMARKS
EVANSVILLE     SUNNY     44  19  36 SW21G30   29.64F
6HR MIN TEMP:  26; 6HR MAX TEMP:  44; 6HR PCP: TRACE;

HUNTINGBURG +  MOSUNNY   41  18  39 S23G29    29.64F
6HR MIN TEMP:  21; 6HR MAX TEMP:  41;

WASHINGTON +   CLOUDY    41  16  36 S17G29    29.58F
6HR MIN TEMP:  21; 6HR MAX TEMP:  41;


$$

INZ062-063-066-070>080-084-089>092-131900-
SOUTH CENTRAL AND SOUTHEAST INDIANA

CITY           SKY/WX    TMP DP  RH WIND       PRES   REMARKS
BEDFORD +      CLOUDY    37  10  32 S20       29.60F WCI  27
BLOOMINGTON    CLOUDY    38  16  40 S18G26    29.54F WCI  28
6HR MIN TEMP:  20; 6HR MAX TEMP:  39;

MADISON *+     MOSUNNY   36   9  32 S15G28    29.65F WCI  26
NORTH VERNON + PTSUNNY   34  10  37 S17G28    29.63F WCI  23
SEYMOUR +      CLOUDY    39  14  35 S16G22    29.61F WCI  30

$$





USA.gov is the U.S. government's official web portal to all federal, state and local government web resources and services.